Theta_e
343 344 348 349 349 347 342 342 343 342 343 343 343 344 348 350 344 347 350 352 350 351 351 351 350 350 348 346 349 350 351 351 351 350 350 348 349 349 353 350 350 350 350
344 347 348 350 350 349 342 342 341 343 344 345 345 343 348 351 351 351 351 351 352 351 352 353 352 352 352 351 351 346 343 347 349 351 352 352 352 350 351 351 350 349 349
346 346 347 349 350 349 343 342 342 344 349 348 341 341 348 351 350 351 352 351 350 352 353 353 350 352 352 352 347 344 345 347 353 351 343 343 349 351 352 350 349 349 349
345 345 346 348 350 350 348 348 339 337 351 351 346 341 348 351 351 352 352 352 354 352 352 351 350 351 346 345 346 346 346 346 349 351 346 342 349 349 350 346 344 346 347
341 343 345 349 347 349 349 350 351 352 352 351 351 351 351 352 352 352 352 353 352 351 351 351 341 337 336 340 345 345 345 347 348 351 349 346 341 344 344 346 344 341 342
343 341 345 349 349 350 347 348 352 352 352 351 352 351 351 353 353 353 352 350 347 349 348 345 339 333 332 336 340 340 342 344 347 348 348 348 345 347 348 349 349 349 348
342 340 340 346 348 349 348 347 351 351 352 353 350 351 353 354 351 351 351 350 348 348 348 340 339 331 328 333 339 341 343 347 348 347 346 346 336 340 346 349 344 339 344
343 341 340 344 346 348 350 350 350 349 349 351 352 353 353 348 351 351 349 346 344 344 346 343 338 333 330 337 341 342 343 349 344 342 339 333 333 334 334 335 336 336 336
341 342 343 343 344 346 347 348 346 350 351 350 352 350 348 348 347 345 344 342 341 343 343 341 340 337 334 339 342 342 343 346 344 343 339 339 340 341 342 343 344 345 345
341 341 341 342 341 342 341 341 336 343 350 351 352 349 342 340 338 342 340 340 341 341 342 341 340 340 340 337 340 342 344 345 348 344 342 342 344 345 346 347 349 350 350
338 338 340 341 342 340 338 335 339 340 343 350 349 353 342 338 339 340 341 341 342 342 341 340 339 339 339 340 342 342 343 343 347 347 344 344 344 345 348 351 350 350 349
338 338 337 337 339 337 336 338 337 338 340 341 343 345 347 346 345 346 346 346 344 344 342 341 340 341 340 340 340 342 342 345 347 348 343 343 344 346 350 351 350 350 351
339 337 334 333 334 334 334 333 335 339 345 346 346 347 348 349 350 348 348 340 337 340 341 341 341 343 345 346 346 348 350 348 349 345 344 344 346 348 349 348 351 349 347
342 341 337 333 336 339 337 339 342 343 339 344 347 348 344 346 347 345 340 342 340 341 344 346 348 348 347 348 349 349 346 350 346 347 346 346 347 348 347 344 344 344 349
340 338 337 334 334 336 337 341 345 345 343 345 345 345 347 347 347 340 340 345 347 348 350 349 351 348 339 347 344 348 347 347 347 348 347 347 346 346 343 341 339 344 350
340 340 338 336 335 336 336 341 346 344 343 345 345 339 347 346 345 344 342 343 346 347 350 350 351 350 347 347 347 347 346 345 348 350 350 349 346 346 346 347 343 341 349
332 334 334 335 338 341 342 344 345 345 344 345 348 342 345 344 343 343 342 343 345 347 350 350 349 348 347 338 345 342 337 336 346 349 349 349 349 348 346 349 348 339 349
333 337 339 340 343 344 345 343 344 344 343 347 346 347 343 338 339 339 342 341 344 348 348 349 348 347 346 345 339 337 340 337 342 344 348 348 348 349 347 349 349 342 350
336 338 343 344 346 347 348 347 345 341 344 346 346 347 347 339 341 334 341 336 344 342 347 349 348 349 340 336 340 336 340 338 342 346 347 348 347 346 349 350 349 344 347
341 343 344 345 346 348 345 345 345 348 348 348 349 345 345 346 335 334 336 340 343 338 342 350 348 347 343 345 336 336 339 341 344 345 346 344 343 347 349 350 351 348 343
345 344 346 346 346 347 345 343 345 348 348 345 344 349 344 348 346 342 341 341 343 340 350 352 350 348 346 342 337 335 342 340 340 340 343 345 348 348 350 351 350 347 347
348 347 347 348 345 347 344 342 346 346 349 345 343 347 348 348 348 335 343 340 336 348 351 353 349 341 338 343 343 340 339 344 346 339 337 344 346 344 345 344 345 346 347
345 347 347 347 347 347 346 347 347 348 348 348 348 349 350 352 349 347 341 334 335 347 352 355 355 353 350 348 344 346 345 346 345 338 336 339 334 339 344 345 337 345 347
342 343 349 348 348 348 346 348 347 347 346 348 349 348 349 350 349 348 347 347 349 349 353 355 354 354 352 351 348 342 344 347 345 336 339 340 339 335 345 342 333 340 340
341 342 348 348 348 349 350 348 348 347 344 346 348 349 346 348 350 350 349 351 351 352 352 355 352 351 350 352 353 347 339 339 337 333 337 340 340 342 345 338 337 337 343
343 344 346 347 346 345 349 348 348 347 348 348 349 350 348 348 348 350 350 351 351 351 354 353 353 353 353 352 350 350 346 346 344 339 337 337 340 343 345 342 342 338 340
Wind_Speed
11 13 13 13 14 14 16 16 15 16 14 14 15 15 15 14 14 15 14 12 12 12 12 12 12 12 12 12 13 13 14 14 14 14 14 14 13 13 13 13 15 15 15
16 14 13 14 14 15 16 16 16 16 14 14 14 15 16 13 14 14 14 12 10 11 10 10 12 12 12 11 11 12 13 13 12 12 12 11 11 11 12 11 11 14 14
18 16 15 15 15 15 15 16 18 19 15 13 15 19 16 15 14 14 13 13 13 11 10 10 11 12 11 11 12 12 12 13 11 10 9 9 11 12 11 9 10 11 12
17 17 16 15 16 15 14 15 16 17 14 14 14 15 14 14 13 13 13 12 11 9 9 9 10 10 10 12 13 12 11 10 10 10 8 6 8 8 9 9 9 9 9
17 15 16 16 16 16 15 14 14 15 14 14 14 13 14 13 12 12 12 10 9 8 7 7 7 8 10 11 11 10 9 8 8 8 5 3 6 8 8 8 8 9 8
15 17 16 16 16 16 15 14 14 14 13 13 13 13 14 13 12 10 9 8 8 7 6 6 7 8 9 11 9 7 5 2 4 8 11 11 6 8 7 7 6 6 7
18 18 18 18 16 16 15 13 13 13 12 12 12 12 12 12 12 10 8 6 6 6 6 5 5 6 8 11 9 6 4 3 5 11 10 12 9 8 8 8 6 6 7
21 19 21 21 17 16 15 14 13 13 13 11 11 11 11 11 9 7 7 6 6 6 5 4 5 4 7 10 8 5 4 7 11 8 6 7 8 7 7 7 6 6 6
19 22 20 21 18 16 14 14 14 14 10 12 10 10 10 9 8 7 7 7 6 4 3 3 2 2 5 7 8 5 1 1 8 6 4 6 7 7 6 6 6 6 7
19 23 22 21 20 18 15 13 13 11 10 8 7 8 8 7 7 7 8 6 4 2 0 1 1 1 2 7 8 7 5 3 7 8 6 7 7 7 7 6 6 5 7
18 21 21 20 19 18 17 15 11 6 7 6 6 6 7 6 6 5 5 4 2 3 3 3 4 5 6 8 8 8 7 6 5 11 10 9 7 7 7 6 4 4 5
18 17 20 20 20 17 17 14 11 5 7 8 7 6 4 4 3 3 5 6 6 8 7 7 7 7 8 9 10 9 12 10 10 11 11 10 8 7 6 5 2 1 2
19 17 18 19 18 18 16 13 10 10 7 5 3 2 2 5 6 9 8 7 9 9 9 10 10 13 15 16 17 15 13 13 7 13 10 9 6 6 4 2 1 2 2
20 17 16 17 17 16 15 14 10 7 4 8 6 5 2 1 5 5 4 6 8 11 13 14 14 15 14 12 17 15 14 11 15 8 3 5 4 3 2 5 5 4 4
23 20 18 18 15 13 12 11 9 8 7 4 4 2 0 6 4 4 4 7 7 10 13 10 12 7 3 16 10 13 23 23 10 8 6 7 5 6 6 9 10 7 5
23 21 21 20 17 14 11 9 6 4 5 5 4 1 4 7 4 3 2 3 3 7 10 7 14 8 6 8 9 10 6 20 21 12 6 7 8 6 7 10 13 12 8
25 22 22 18 17 15 11 7 8 6 6 7 3 4 11 8 4 4 2 4 1 7 8 15 19 14 11 13 7 9 10 12 20 5 3 5 6 6 8 9 12 14 10
29 26 20 16 14 12 7 8 5 4 8 7 5 8 4 5 3 7 5 1 4 6 8 16 15 8 6 7 9 11 13 10 14 11 1 1 3 3 6 8 10 13 10
33 27 23 19 15 12 12 10 8 8 8 8 9 9 5 6 4 6 6 3 2 4 8 14 10 5 3 3 7 12 6 4 12 10 5 4 5 5 4 7 8 12 10
33 30 26 23 16 14 13 12 9 8 8 15 12 11 6 3 4 2 10 5 1 1 5 10 9 7 10 6 7 8 2 4 13 18 13 9 8 6 6 5 5 9 11
27 31 27 23 22 21 13 13 8 8 8 12 9 8 6 5 4 5 8 7 5 3 5 9 5 2 6 1 1 5 10 8 13 14 13 12 13 12 9 7 5 7 9
33 34 31 28 25 20 15 13 9 10 10 11 12 10 7 6 3 10 10 10 4 3 4 8 6 1 3 4 3 3 3 1 6 13 11 11 12 10 7 8 9 6 5
28 34 33 32 27 22 19 15 9 9 11 13 12 9 10 7 6 6 5 4 7 4 4 9 6 2 2 2 1 1 2 2 3 10 11 5 5 6 8 4 5 3 5
35 31 29 33 30 22 20 12 14 14 11 13 17 13 11 9 6 4 6 5 4 6 6 6 5 5 7 9 5 9 3 2 2 2 7 6 9 6 7 6 6 3 3
29 33 35 35 30 23 19 15 16 16 10 11 15 14 14 12 9 8 5 4 6 5 3 3 2 2 9 8 6 3 6 2 1 2 1 6 6 4 4 7 7 5 3
22 21 32 32 28 23 20 17 17 17 11 9 15 19 16 14 10 11 7 7 4 3 3 2 2 4 4 4 5 5 2 4 5 4 2 3 5 4 2 4 10 5 3
Wind_Direction
160 153 146 146 144 143 144 137 126 121 115 121 124 118 108 110 115 118 113 110 105 111 110 111 110 112 111 113 115 112 112 110 113 118 116 113 118 131 128 120 126 124 124
150 154 149 145 152 148 146 137 128 125 116 120 124 117 109 112 114 115 114 112 111 108 112 119 117 117 113 106 105 104 106 108 110 113 109 100 96 121 119 119 129 133 133
149 151 151 151 149 149 142 141 136 124 123 122 121 121 111 113 118 117 117 112 108 113 118 114 110 108 113 117 111 107 106 111 113 115 118 115 118 119 130 129 133 132 131
151 149 150 150 144 145 143 141 131 127 126 124 126 128 116 116 121 115 114 113 115 116 118 121 119 121 125 126 127 125 125 130 130 115 101 110 131 139 134 134 137 138 141
156 154 150 146 142 146 144 144 139 130 127 125 129 124 122 120 118 115 114 115 113 116 119 125 130 134 134 133 134 133 133 146 166 193 200 184 155 142 143 147 143 146 147
152 160 156 148 148 151 153 143 137 129 126 129 129 128 128 123 120 119 117 119 120 115 120 132 147 143 144 148 146 134 136 173 222 218 213 203 179 167 161 155 148 163 178
154 160 155 147 149 149 149 150 137 131 131 131 130 133 132 129 133 133 131 121 114 115 117 132 151 141 148 156 161 159 137 98 185 163 172 185 180 180 174 177 187 188 194
144 144 156 153 150 150 147 145 136 133 133 134 136 142 139 134 132 144 139 129 128 122 127 141 115 137 152 162 162 160 113 70 180 180 182 187 177 179 180 184 184 194 200
137 145 140 150 152 152 155 145 141 132 137 138 146 145 142 140 144 155 153 157 150 150 138 112 121 140 157 171 165 168 169 123 189 205 213 195 186 179 189 196 197 209 222
140 146 146 146 153 156 156 147 133 124 129 131 141 144 146 152 157 172 172 175 171 176 228 302 288 259 249 209 201 208 228 257 222 217 226 220 205 195 207 213 210 228 243
144 152 151 154 155 157 157 151 145 125 114 137 134 145 160 151 166 194 212 223 245 278 275 294 297 284 270 256 235 228 238 233 239 217 239 229 223 217 218 233 234 248 260
158 160 157 160 157 157 153 161 166 142 133 126 137 149 147 145 180 255 271 289 294 289 297 294 288 278 270 271 249 245 254 252 233 246 254 232 228 232 233 239 258 305 281
163 164 164 158 155 150 147 157 156 149 143 159 174 194 247 240 255 283 271 294 284 286 295 284 275 284 290 280 277 271 269 269 211 252 229 230 237 229 227 341 12 278 296
167 171 171 162 164 161 162 160 159 151 136 124 123 90 91 211 217 215 265 301 300 297 292 281 291 303 294 308 332 328 329 270 196 223 199 205 228 173 68 22 17 34 41
162 166 175 172 168 167 169 168 166 171 180 163 136 125 151 188 199 233 265 267 289 306 319 303 309 284 211 355 23 49 33 8 286 217 168 131 106 91 64 41 34 30 37
172 175 182 187 178 178 187 191 181 169 193 204 192 151 153 159 187 253 242 300 266 316 331 324 358 265 359 30 13 56 20 345 350 237 143 96 93 80 69 40 31 27 35
170 173 186 186 180 180 184 218 223 232 242 205 219 195 167 134 211 204 125 113 85 309 338 12 73 96 23 281 268 250 68 293 328 60 60 69 96 83 42 48 28 26 35
173 175 183 184 187 183 185 159 191 215 192 199 184 151 186 224 143 160 129 33 333 333 1 34 81 43 102 209 272 89 73 257 337 3 42 329 26 36 28 41 29 24 30
179 185 184 187 188 188 186 184 197 204 222 206 189 163 162 182 252 187 180 322 306 5 53 43 59 19 233 180 124 134 46 237 316 357 10 344 323 345 4 26 37 26 27
180 180 182 189 195 195 190 191 173 163 161 180 173 163 150 186 149 186 202 252 287 84 78 54 58 73 32 359 111 149 104 337 57 61 73 64 74 54 37 19 40 29 19
195 186 183 191 198 190 193 174 173 161 168 194 188 163 170 182 166 228 219 219 187 88 67 56 60 99 70 0 47 91 100 119 74 67 67 63 96 84 80 64 32 24 17
190 187 185 192 190 192 181 195 190 175 174 184 185 184 184 179 223 200 220 189 215 112 75 76 50 40 285 250 308 65 27 283 101 45 56 78 114 77 92 66 42 58 38
186 187 191 196 188 189 195 202 191 166 168 173 190 183 183 178 184 185 168 220 174 128 77 75 51 23 101 151 260 119 101 250 18 23 22 80 60 78 59 77 57 56 67
182 178 180 181 183 186 191 207 214 196 176 190 191 190 190 190 197 183 174 146 116 135 87 65 55 26 61 92 60 56 70 237 186 309 16 14 15 30 25 61 56 10 155
181 183 177 177 184 185 189 206 211 205 205 191 198 204 185 196 202 207 216 161 121 121 82 77 4 17 48 63 57 54 84 99 38 164 297 324 8 349 129 83 354 358 124
191 185 185 185 189 194 190 200 207 215 207 225 213 207 207 192 209 209 225 210 185 178 157 120 9 29 51 69 69 67 147 278 231 140 109 286 286 340 206 275 327 176 207